Rhinelander, WI

2:13 PM CDT on June 28, 2017 (GMT -0500)
Rhinelander-Oneida County

Weather History for KRHI - February, 2013

Change the Weather History Date:

Saturday, February 16, 2013

  Actual Average Record
Temperature  
Mean Temperature 1 °F 17 °F  
Max Temperature 13 °F 27 °F 60 °F (1931)
Min Temperature -12 °F 7 °F -41 °F (1936)
Degree Days  
Heating Degree Days 64 48  
Month to date heating degree days 857 806  
Since 1 July heating degree days 5860 6067  
Cooling Degree Days 0 0  
Month to date cooling degree days 0 0  
Year to date cooling degree days 0 0  
Moisture  
Dew Point -5 °F    
Average Humidity 70    
Maximum Humidity 87    
Minimum Humidity 53    
Precipitation  
Precipitation T in 0.03 in 0.39 in (1962)
Month to date precipitation 1.10 0.50  
Year to date precipitation 2.29 1.61  
Snow  
Snow T in - 3.00 in (2006)
Month to date snowfall 12.5  
Since 1 July snowfall 43.1  
Snow Depth 14.00 in    
Sea Level Pressure  
Sea Level Pressure 30.17 in    
Wind  
Wind Speed 3 mph (NW)    
Max Wind Speed 10 mph    
Max Gust Speed 16 mph    
Visibility 10 miles    
Events      
T = Trace of Precipitation, MM = Missing Value Source: NWS Daily Summary

Daily Weather History Graph

Daily Weather History Graph

Search for Another Location

Airport or City:

Trip Planner

Search our weather history database for the weather conditions in past years. The results will help you decide how hot, cold, wet, or windy it might be!

Date:

Astronomy

Feb. 16, 2013 Rise Set
Actual Time 6:57 AM CST 5:26 PM CST
Civil Twilight 6:27 AM CST 5:57 PM CST
Nautical Twilight 5:52 AM CST 6:31 PM CST
Astronomical Twilight 5:18 AM CST 7:06 PM CST
Moon 9:48 AM CST (2/16) No Moon Set
Length of Visible Light 11h 29m
Length of Day
10h 28m
Waxing Crescent, 39% of the Moon is Illuminated
Feb 16
Waxing Crescent
Feb 17
First Quarter
Feb 25
Full
Mar 4
Last Quarter
Mar 11
New

Hourly Weather History & Observations

Time (CST) Temp. Windchill Dew Point Humidity Pressure Visibility Wind Dir Wind Speed Gust Speed Precip Events Conditions
12:53 AM 1.0 °F -11.7 °F -2.9 °F 83% 30.18 in 10.0 mi West 6.9 mph - N/A   Overcast
1:53 AM -0.9 °F -12.7 °F -5.1 °F 83% 30.18 in 10.0 mi West 5.8 mph - N/A   Mostly Cloudy
2:53 AM -0.0 °F -13.0 °F -5.1 °F 79% 30.17 in 10.0 mi West 6.9 mph - N/A   Scattered Clouds
3:53 AM -0.9 °F -14.1 °F -6.0 °F 79% 30.16 in 10.0 mi WNW 6.9 mph - N/A   Clear
4:53 AM -0.9 °F -8.9 °F -6.0 °F 79% 30.17 in 10.0 mi NW 3.5 mph - N/A   Overcast
5:15 AM -2.2 °F -10.4 °F -5.8 °F 85% 30.04 in 10.0 mi WNW 3.5 mph - N/A   Mostly Cloudy
5:35 AM -2.2 °F -10.4 °F -7.6 °F 78% 30.05 in 10.0 mi NW 3.5 mph - N/A   Scattered Clouds
5:53 AM -2.9 °F -11.2 °F -7.1 °F 82% 30.17 in 10.0 mi WNW 3.5 mph - N/A   Clear
6:53 AM -9.0 °F - -13.0 °F 83% 30.19 in 10.0 mi Calm Calm - N/A   Clear
7:53 AM -2.0 °F -10.1 °F -6.0 °F 83% 30.20 in 10.0 mi WNW 3.5 mph - N/A   Clear
8:53 AM 3.9 °F -3.4 °F -2.0 °F 76% 30.20 in 10.0 mi NW 3.5 mph - N/A   Clear
9:53 AM 7.0 °F -3.3 °F -0.0 °F 73% 30.19 in 10.0 mi NW 5.8 mph - N/A   Clear
10:53 AM 10.9 °F 2.9 °F 1.0 °F 64% 30.18 in 10.0 mi Variable 4.6 mph - N/A   Scattered Clouds
11:25 AM 10.4 °F 0.8 °F -2.2 °F 57% 30.06 in 10.0 mi Variable 5.8 mph - N/A   Mostly Cloudy
11:42 AM 10.4 °F -0.4 °F -0.4 °F 62% 30.06 in 10.0 mi North 6.9 mph - N/A   Overcast
11:53 AM 10.9 °F -0.8 °F -2.0 °F 56% 30.18 in 10.0 mi NNE 8.1 mph - N/A   Overcast
12:53 PM 10.9 °F 2.9 °F -2.0 °F 56% 30.17 in 10.0 mi North 4.6 mph - 0.00 in   Overcast
1:53 PM 12.0 °F - -2.9 °F 51% 30.16 in 10.0 mi Calm Calm - 0.00 in   Mostly Cloudy
2:53 PM 12.0 °F 4.1 °F 1.0 °F 61% 30.17 in 10.0 mi North 4.6 mph - 0.00 in   Overcast
3:53 PM 12.0 °F - 1.9 °F 64% 30.18 in 7.0 mi Calm Calm - 0.00 in   Overcast
4:53 PM 12.0 °F 4.1 °F -2.9 °F 51% 30.19 in 10.0 mi WNW 4.6 mph - N/A   Overcast
5:53 PM 9.0 °F - -2.9 °F 59% 30.20 in 10.0 mi Calm Calm - N/A   Partly Cloudy
6:53 PM -0.9 °F - -6.0 °F 79% 30.24 in 10.0 mi Calm Calm - N/A   Clear
7:53 PM -0.0 °F - -5.1 °F 79% 30.22 in 10.0 mi Calm Calm - N/A   Clear
8:53 PM -6.0 °F - -9.9 °F 83% 30.22 in 5.0 mi Calm Calm - N/A   Clear
9:53 PM -9.0 °F - -13.0 °F 83% 30.22 in 10.0 mi Calm Calm - N/A   Clear
10:53 PM -8.0 °F - -14.1 °F 75% 30.21 in 8.0 mi Calm Calm - N/A   Clear
11:53 PM -9.9 °F - -15.0 °F 78% 30.20 in 10.0 mi Calm Calm - N/A   Partly Cloudy